Snowfall_Accumulation
1.5 1.5 1.7 1.7 1.9 1.5 1.6 1.4 1.4 1.0 1.0 0.9 0.6 0.6 0.6 0.5 0.4 0.4 0.8 0.8 0.9 1.0 1.0 0.5 0.7 0.7 0.7 0.7 0.5 0.5 0.5 0.9 1.6 0.8 0.6 0.4 0.4 0.3 0.4 0.1 0.1 0.1 0.1
1.7 1.6 1.5 1.5 1.7 1.8 1.8 1.9 1.9 1.6 0.9 0.7 0.8 0.6 0.7 0.4 0.4 0.5 0.5 0.6 0.7 0.8 0.8 0.6 0.7 0.6 0.6 0.8 0.9 0.5 0.5 0.6 1.6 1.9 1.1 1.0 0.6 0.6 0.5 0.6 0.6 0.5 0.4
1.9 1.9 1.7 1.4 1.5 1.7 2.0 1.9 1.8 1.5 1.4 0.9 0.8 0.9 0.9 0.5 0.5 0.4 0.4 0.6 0.6 0.7 0.6 0.4 0.5 0.7 0.8 1.0 0.8 0.4 0.7 0.9 1.5 2.1 1.2 0.8 0.8 0.4 0.4 0.3 0.4 0.5 0.3
1.8 1.9 2.0 2.1 1.7 1.9 2.0 2.0 1.7 1.8 1.9 2.0 1.3 1.1 0.9 1.1 0.8 0.8 0.7 0.8 0.8 0.8 0.6 0.5 0.4 0.6 0.9 1.3 1.5 1.5 1.8 1.8 2.0 2.3 2.3 1.7 1.4 0.8 0.9 0.9 0.9 0.7 0.5
1.4 1.5 1.8 2.1 1.7 1.8 1.9 2.1 2.2 1.5 2.0 2.0 2.1 1.8 1.3 1.2 0.9 1.0 1.0 1.0 1.1 0.9 0.8 0.7 0.7 0.8 0.8 1.2 1.8 2.2 2.1 2.7 3.4 4.0 3.8 2.7 1.9 1.4 1.2 1.3 1.3 1.1 0.9
1.6 1.8 1.6 2.0 1.6 1.9 2.1 2.1 2.3 2.6 2.4 2.0 2.2 2.2 1.7 1.4 1.3 1.0 1.3 1.7 1.4 1.5 1.5 1.3 1.3 1.2 0.9 1.3 1.4 1.6 2.7 4.4 5.2 5.7 5.1 3.7 2.1 1.7 1.5 1.8 2.4 2.9 2.4
2.0 1.4 1.5 1.8 1.8 1.8 2.2 2.7 2.6 2.9 2.7 2.4 2.0 2.0 2.1 1.6 1.1 1.3 1.6 1.9 2.3 2.0 2.0 1.7 1.5 1.4 1.3 1.2 1.4 1.6 2.1 2.9 3.8 4.6 4.5 2.9 2.0 1.7 2.8 4.0 4.0 4.3 3.1
2.3 2.0 1.6 1.7 1.9 2.0 2.6 3.2 3.7 3.5 3.7 3.6 3.1 2.9 2.8 2.2 1.4 1.7 2.2 2.5 2.1 1.8 1.6 1.4 1.4 1.1 1.1 1.8 2.7 3.2 2.1 1.7 1.7 1.8 2.2 1.7 1.6 1.7 3.2 5.3 5.2 4.1 1.9
3.3 2.8 2.8 2.7 2.8 3.2 3.5 3.9 4.3 4.1 4.1 4.4 3.8 3.8 3.5 2.8 1.9 1.9 2.2 2.8 2.4 1.8 1.6 1.2 1.4 1.3 1.6 3.1 4.6 4.9 2.6 1.3 0.9 1.1 1.5 1.5 1.5 1.7 2.2 4.6 6.2 7.5 5.7
4.1 3.6 2.9 3.2 3.6 3.3 3.7 3.7 4.4 5.0 4.0 4.0 4.1 3.4 2.9 2.7 2.0 2.3 2.0 2.6 2.6 2.4 2.2 1.4 1.5 1.8 2.7 4.6 5.5 5.1 3.7 1.8 1.8 1.6 1.1 0.7 0.7 0.6 1.1 3.4 7.9 12.9 10.4
5.1 4.0 3.6 3.2 3.7 3.5 3.3 3.7 4.0 4.4 4.2 3.6 3.3 2.6 2.4 2.2 1.8 1.9 2.5 3.5 4.1 3.7 3.0 1.8 1.5 2.3 3.6 4.4 4.4 3.6 3.5 4.0 3.4 2.4 1.6 1.1 1.1 1.0 1.1 1.4 3.8 10.7 14.4
5.7 4.8 4.6 4.3 4.3 3.7 3.4 3.6 3.6 3.5 3.4 3.4 3.1 2.9 2.4 2.2 1.9 2.1 2.6 3.5 4.5 5.0 4.3 2.4 2.0 3.2 3.8 3.2 2.6 2.5 3.6 3.8 3.3 3.3 3.1 2.5 2.5 2.3 2.3 2.3 2.3 3.6 6.7
6.1 5.9 5.3 4.8 4.8 4.3 4.1 3.7 3.5 3.3 3.6 3.8 3.6 3.4 3.0 2.3 2.0 2.1 2.6 3.4 4.1 4.4 4.0 3.5 3.6 3.5 3.2 2.4 2.2 2.8 2.9 3.6 4.6 5.7 5.5 4.4 3.2 3.4 3.1 3.7 3.4 3.7 4.5
6.3 6.5 6.1 5.9 5.7 5.0 4.2 4.3 4.3 4.8 4.8 5.0 4.5 4.4 3.8 3.1 2.8 2.8 3.5 3.6 3.7 3.9 4.2 3.9 3.5 2.9 2.8 3.0 3.0 3.4 3.6 4.1 5.9 7.1 6.3 5.1 4.6 5.2 5.6 6.7 8.3 8.3 9.2
6.7 6.9 6.7 6.7 6.9 6.3 6.5 6.2 6.1 6.0 6.3 7.0 6.2 5.6 5.5 5.5 4.1 4.9 5.7 5.7 6.0 5.9 6.3 5.2 4.2 4.2 3.8 3.9 3.7 3.6 4.0 4.8 5.9 6.5 6.8 7.1 6.8 7.4 8.4 9.1 10.9 11.9 12.5
7.0 7.0 7.2 7.4 7.7 6.8 7.0 7.2 6.1 5.6 4.9 5.0 4.8 5.7 5.7 5.5 5.4 5.8 6.0 6.2 6.7 6.5 6.9 7.1 5.8 5.3 5.4 4.9 5.1 4.7 5.0 5.5 6.5 8.1 8.7 9.3 9.9 10.4 11.2 11.2 12.6 14.1 13.5
7.5 7.4 7.7 7.6 7.8 8.0 7.2 6.8 7.6 6.2 4.7 4.4 4.5 4.7 5.2 5.2 5.6 5.8 6.4 6.1 5.5 5.2 6.6 7.4 6.8 6.5 6.4 6.1 6.5 6.5 6.7 6.4 7.9 10.0 11.0 11.7 12.4 12.6 13.4 14.1 14.1 14.3 13.1
6.6 7.2 7.3 7.7 7.9 7.7 7.5 7.0 6.8 6.9 6.8 6.3 5.5 4.9 4.8 4.5 4.8 5.3 5.6 5.4 5.4 4.8 5.8 6.6 6.6 6.8 6.9 7.2 7.5 8.2 8.4 8.5 9.5 11.0 12.0 12.6 14.2 15.7 15.9 15.3 14.4 14.2 13.5
6.4 6.8 7.0 7.2 7.5 7.7 8.1 7.0 7.3 7.2 7.1 6.6 6.3 6.6 5.7 4.8 4.9 5.0 5.3 6.1 6.8 6.8 6.5 6.1 6.2 6.7 7.7 8.4 8.9 9.5 10.3 11.5 12.2 14.1 14.5 14.8 15.5 17.9 18.2 15.4 14.3 13.0 12.5
6.1 6.6 6.9 6.9 7.3 7.6 7.9 7.9 8.1 7.5 7.4 6.9 6.9 7.5 7.1 7.0 7.4 6.9 6.9 7.2 7.9 7.8 7.3 7.3 7.1 7.2 8.1 8.9 9.8 10.7 11.9 13.0 13.4 14.9 15.4 14.9 15.5 16.9 16.9 14.5 12.8 12.7 11.7
5.7 6.1 6.3 6.6 7.1 7.6 8.1 8.4 8.4 8.4 8.0 7.7 7.8 8.2 8.3 9.2 8.4 7.8 8.0 8.4 8.5 9.3 9.5 9.3 9.0 8.5 9.3 9.7 10.9 11.8 13.0 13.9 14.4 15.9 16.4 15.7 15.2 14.5 12.8 12.2 12.0 12.2 12.7
5.5 5.9 6.3 6.7 6.9 7.5 8.3 8.7 8.8 8.9 8.5 8.3 8.3 8.3 8.0 7.9 7.6 7.7 8.0 8.1 8.1 8.5 9.0 10.1 10.3 9.9 11.1 13.5 15.4 16.4 15.5 14.7 14.8 16.7 16.7 15.5 14.0 13.0 12.3 13.1 12.7 13.0 13.0
5.0 5.5 5.9 6.2 6.7 7.4 7.8 7.9 8.3 8.8 8.8 8.7 8.6 8.7 8.4 8.4 7.7 7.9 8.1 8.4 8.3 8.2 8.0 9.0 10.1 9.8 10.4 12.6 15.3 19.7 21.6 19.1 17.6 18.6 19.4 17.6 15.0 14.0 14.2 14.7 13.7 13.8 13.3
4.9 5.0 5.5 5.8 6.2 6.7 7.2 7.5 7.9 8.2 8.5 8.5 8.5 8.6 8.7 8.7 8.9 8.6 8.6 8.6 8.3 8.3 8.1 8.9 10.0 10.4 10.5 12.7 14.5 16.5 18.3 19.6 21.8 22.1 21.5 21.3 18.6 16.0 15.6 15.5 14.1 13.5 13.3
5.0 5.0 5.5 5.7 6.2 6.3 6.8 7.0 7.3 7.7 8.1 8.1 8.2 8.2 8.5 8.5 8.2 8.3 8.7 8.5 8.4 8.5 7.7 8.3 9.5 10.7 11.4 12.9 14.5 15.9 16.0 17.5 19.5 21.0 21.1 20.5 18.7 16.1 15.7 15.6 14.6 13.9 13.7
4.8 4.9 5.2 5.6 5.9 5.9 6.6 6.9 7.2 7.5 8.0 8.3 8.4 8.4 8.7 8.7 8.7 8.7 8.9 9.2 9.3 8.9 8.3 8.4 8.9 10.1 11.5 12.9 13.3 14.3 15.3 15.2 13.8 13.9 17.4 19.6 18.4 16.0 16.0 16.7 15.4 14.7 14.5